User: anonymous   Login
Location: Albany
(35.0000°S, 118.0000°E)
Time: 23:22:47
(UTC-04:00)
Language:

Cosmos 1346 Rocket - Orbit

View from above orbital plane
View from above orbital plane
View from above satellite
View from above satellite

Ground track
Ground track

The orbit data is extracted from the following two-line orbital elements,

1 13121U 82027B   15144.78196051  .00001227  00000-0  79791-4 0  9998
2 13121 081.1674 265.0994 0029240 138.7032 221.6411 15.06937492803300
Epoch (UTC): 24 May 2015 18:46:01
Eccentricity: 0.0029240
inclination: 81.1674°
perigee height: 525 km
apogee height: 566 km
right ascension of ascending node: 265.0994°
argument of perigee: 138.7032°
revolutions per day: 15.06937492
mean anomaly at epoch: 221.6411°
orbit number at epoch: 80330

The dashed part of the orbit path shows where the satellite is in the earth's shadow,  

DLR